Regional Weather Roundup
Issued by NWS

Home | Current Version | Previous Version | Graphics & Text | Print | Product List | Glossary On
Versions: 1 2 3 4 5 6 7 8 9 10 11 12 13 14 15 16 17 18 19 20 21 22 23 24 25 26 27 28 29 30 31 32 33 34 35 36 37 38 39 40 41 42 43 44 45 46 47 48 49 50
984
ASUS45 KCYS 151310
RWRWY

WYOMING REGIONAL WEATHER ROUNDUP
NATIONAL WEATHER SERVICE CHEYENNE WY
600 AM MST FRI DEC 15 2017

NOTE:  "FAIR" INDICATES FEW OR NO CLOUDS BELOW 12,000 FEET
WITH NO SIGNIFICANT WEATHER AND/OR OBSTRUCTIONS TO VISIBILITY.

WYZ001-151400-
YELLOWSTONE NATIONAL PARK

CITY           SKY/WX    TMP DP  RH WIND       PRES   REMARKS
LK YELLOWSTONE   N/A     12   9  87 CALM      30.27S
W YELLOWSTONE  NOT AVBL

$$
WYZ002>013-054>058-071-098>099-151400-
NORTHERN WYOMING

CITY           SKY/WX    TMP DP  RH WIND       PRES   REMARKS
JACKSON        CLOUDY    10   6  84 CALM      30.30F
CODY           FAIR      23  15  71 VRB7      30.00R WCI  15
GREYBULL       FAIR      16  14  92 SE3       30.05S
WORLAND        FAIR      13  11  92 CALM      30.04F
SHERIDAN       FAIR      22  16  78 CALM      29.87S
BUFFALO        FAIR      39   2  21 S6        29.88F WCI  35
GILLETTE       FAIR      33  15  47 SW17      29.88F WCI  22
HULETT         FAIR      32  14  47 SW12      29.88F WCI  23
NEWCASTLE      FAIR      19  14  79 CALM      29.93F

$$
WYZ014>020-022>026-101>103-151400-
CENTRAL WYOMING

CITY           SKY/WX    TMP DP  RH WIND       PRES   REMARKS
BIG PINEY      FAIR       8   2  76 W5        30.21S WCI   0
PINEDALE       FAIR      18  10  73 NW7       30.20R WCI   8
DUBOIS         FAIR      30   5  34 NW17G24   30.12S WCI  18
LANDER         FAIR      18  11  74 VRB7      30.04F WCI   9
RIVERTON       FAIR      14  11  87 NW5       30.06F WCI   6
CASPER         FAIR      29  16  58 SW24G32   30.01F WCI  15
DOUGLAS        FAIR      21  14  74 CALM      29.97F

$$
WYZ021-027>030-104>119-151400-
SOUTHERN WYOMING

CITY           SKY/WX    TMP DP  RH WIND       PRES   REMARKS
EVANSTON       FAIR      20  15  81 S8        30.28F WCI  10
FORT BRIDGER   FAIR      28   8  41 W16       30.26F WCI  16
ROCK SPRINGS   FAIR      28  11  48 W16       30.20F WCI  16
DIXON          FAIR      14  10  83 CALM      30.30S
RAWLINS        FAIR      28  13  53 MISG      30.16S
SARATOGA       FAIR      19  10  68 SE12      30.20S WCI   7
LARAMIE        FAIR      25  10  53 SW20G31   30.08F WCI  11
CHEYENNE       FAIR      35  11  36 W25G32    30.00F WCI  23
TORRINGTON     FAIR      24  15  68 NW6       29.97F WCI  17
PINE BLUFFS    FAIR      18  10  73 S7        30.02F WCI   8

$$




USA.gov is the U.S. government's official web portal to all federal, state and local government web resources and services.